GSAT-29

Last updated on Sun Jun 21 2026 00:03:07 GMT+0000 (Coordinated Universal Time)

1 43698U 18089A 26170.97514333 .00000079 00000+0 00000+0 0 9991 2 43698 0.0990 264.2646 0003865 153.4996 256.5836 1.00276899 27814
UTC large
Height (km)
Speed (km/s)
/
Latitude / Longitude
Inclination (degrees)
Orbital Period (minutes)
Azimuth
Elevation
Range (km)
Doppler Factor

Next 0 passes for location: London (51.5072 / 0.1276)

No passes found over London.
GSAT-29